Flag for Austria Weather past 2 weeks in Bad Radkersburg, Styria, Austria

Now
48 °F

Overcast.


Feels Like: 48 °F
Forecast: 37 / 55 °F
Wind: 2 mph from Northwest

Location: Murska Sobota

Current Time: Mar 27, 2015 at 2:27:15 PM

Latest Report: Mar 27, 2015 at 1:00 PM


Visibility: 13 mi

Pressure: 29.90 "Hg

Humidity: 85%

Dew point: 44 °F

Location of Bad RadkersburgLocation

Historic Weather in Bad Radkersburg — Graph

°F

Bad Radkersburg temperature yesterday

Maximum temperature yesterday: 65 °F (at 3:00 PM)
Minimum temperature yesterday: 47 °F (at 6:00 AM)
Average temperature yesterday: 53 °F

Past Weeks' High & Low Weather Summary

 TemperatureHumidityPressure
High65 °F (Mar 26, 3:00 PM)100% (Mar 27, 4:00 AM)30.52 "Hg (Mar 27, 4:00 AM)
Low27 °F (Mar 20, 6:00 AM)33% (Mar 18, 3:00 PM)29.72 "Hg (Mar 25, 7:00 PM)
Average44 °F71%30.15 "Hg
* Reported Mar 12 1:00 PM — Mar 27 1:00 PM, Bad Radkersburg, Weather by CustomWeather, © 2015

Note: Actual official high and low records may vary slightly from our data, if they occured in-between our weather recording intervals... More about our weather records

Advertising

Bad Radkersburg weather history for previous 24 hours

 ConditionsComfort  
Time TempWeatherWind HumidityBarometerVisibility
1:00 PM
Fri, Mar 27
48 °FOvercast.2 mph85%29.90 "Hg12 mi
12:00 PM47 °FCool.2 mph87%29.89 "HgN/A
11:00 AM47 °FCool.3 mph91%29.88 "HgN/A
10:00 AM47 °FCool.3 mph91%29.87 "HgN/A
9:00 AM46 °FCool.3 mph92%29.86 "HgN/A
8:00 AM46 °FLight rain. Overcast.6 mph90%29.83 "Hg1 mi
7:00 AM48 °FLight rain. Overcast.2 mph90%29.81 "Hg1 mi
6:00 AM49 °FCool.5 mph90%29.77 "HgN/A
5:00 AM49 °FCool.3 mph99%29.75 "HgN/A
4:00 AM50 °FCool.1 mph100%29.73 "HgN/A
3:00 AM50 °FCool.1 mph99%29.73 "HgN/A
2:00 AM49 °FCool.1 mph99%29.74 "HgN/A
1:00 AM49 °FCool.No wind98%29.75 "HgN/A
12:00 AM49 °FCool.No wind98%29.76 "HgN/A
11:00 PM
Thu, Mar 26
50 °FCool.1 mph98%29.76 "HgN/A
10:00 PM50 °FCool.No wind96%29.77 "HgN/A
9:00 PM53 °FCool.1 mph96%29.77 "HgN/A
8:00 PM54 °FCool.1 mph93%29.76 "HgN/A
7:00 PM55 °FFog.2 mph94%29.76 "Hg4 mi
6:00 PM55 °FCool.1 mph88%29.75 "HgN/A
5:00 PM61 °FCool.2 mph79%29.73 "HgN/A
4:00 PM64 °FMild.1 mph61%29.72 "HgN/A
3:00 PM65 °FMild.1 mph61%29.73 "HgN/A
2:00 PM64 °FPassing clouds.2 mph65%29.74 "Hg6 mi
Weather by CustomWeather, © 2015

See weather overviewHow to use our weather pages